Weather History for Laoag, Philippines

Change the Weather History Date:

Tuesday, January 29, 2013

  Actual Average Record
Temperature  
Mean Temperature 76 °F -  
Max Temperature 87 °F - - ()
Min Temperature 64 °F - - ()
Cooling Degree Days 10    
Growing Degree Days 26 (Base 50)    
Moisture  
Dew Point 67 °F    
Average Humidity 63    
Maximum Humidity 92    
Minimum Humidity 46    
Precipitation  
Precipitation 0.00 in - - ()
Sea Level Pressure  
Sea Level Pressure 29.96 in    
Wind  
Wind Speed 5 mph ()    
Max Wind Speed 12 mph    
Max Gust Speed -    
Visibility 6.4 miles    
Events      
T = Trace of Precipitation, MM = Missing Value Source: Averaged Metar Reports

Daily Weather History Graph

Daily Weather History Graph

Search for Another Location

Airport:

Trip Planner

Search our weather history database for the weather conditions in past years. The results will help you decide how hot, cold, wet, or windy it might be!

Date:

Astronomy

Jan. 29, 2013 Rise Set
Actual Time 6:31 AM PHT 5:50 PM PHT
Civil Twilight 6:08 AM PHT 6:13 PM PHT
Nautical Twilight 5:42 AM PHT 6:39 PM PHT
Astronomical Twilight 5:16 AM PHT 7:05 PM PHT
Moon 7:42 PM PHT (1/29) 7:34 AM PHT (1/29)
Length of Visible Light 12h 04m
Length of Day
11h 18m
Waning Gibbous, 96% of the Moon is Illuminated
Jan 29
Waning Gibbous
Feb 3
Last Quarter
Feb 10
New
Feb 18
First Quarter
Feb 26
Full

Hourly Weather History & Observations

Time (PHT) Temp. Heat Index Dew Point Humidity Pressure Visibility Wind Dir Wind Speed Gust Speed Precip Events Conditions
2:00 AM 69 °F - 65 °F 82% 29.94 in 7 mi Calm Calm - -   Scattered Clouds
5:00 AM 65 °F - 63 °F 92% 29.96 in 7 mi East 2.2 mph - -   Scattered Clouds
6:00 AM 66.2 °F - 62.6 °F 88% 29.98 in 6.2 mi Calm Calm - N/A   Partly Cloudy
7:00 AM - - - N/A% - - North - - N/A   Unknown
8:00 AM 71 °F - 62 °F 67% 30.00 in 5 mi East 2.2 mph - -   Haze
8:00 AM - - - N/A% - - North - - N/A   Unknown
9:00 AM 78.8 °F - 64.4 °F 61% 30.01 in 6.2 mi NE 4.6 mph - N/A   Partly Cloudy
10:00 AM 82.4 °F 84.6 °F 66.2 °F 58% 30.01 in 6.2 mi ENE 6.9 mph - N/A   Partly Cloudy
11:00 AM 84 °F - 68 °F 49% 30.00 in 7 mi NNW 8.9 mph - -   Haze
11:00 AM 84.2 °F 87.3 °F 68.0 °F 58% 29.98 in 6.2 mi NNW 9.2 mph - N/A   Partly Cloudy
12:00 PM 84.2 °F 86.6 °F 66.2 °F 55% 29.98 in 6.2 mi NNW 9.2 mph - N/A   Partly Cloudy
1:00 PM 86.0 °F 90.4 °F 69.8 °F 58% 29.95 in 6.2 mi North 11.5 mph - N/A   Partly Cloudy
2:00 PM 87 °F - 70 °F 48% 29.94 in 7 mi North 11.2 mph - -   Haze
2:00 PM 86.0 °F 90.4 °F 69.8 °F 58% 29.92 in 6.2 mi North 11.5 mph - N/A   Partly Cloudy
3:00 PM 86.0 °F 90.4 °F 69.8 °F 58% 29.92 in 6.2 mi North 11.5 mph - N/A   Partly Cloudy
4:00 PM 87.8 °F 92.6 °F 69.8 °F 55% 29.92 in 6.2 mi North 11.5 mph - N/A   Partly Cloudy
5:00 PM 86 °F - 68 °F 46% 29.93 in 7 mi North 8.9 mph - -   Haze
5:00 PM 86.0 °F 89.4 °F 68.0 °F 55% 29.92 in 6.2 mi North 9.2 mph - N/A   Partly Cloudy
6:00 PM 82.4 °F 84.6 °F 66.2 °F 58% 29.92 in 6.2 mi East 4.6 mph - N/A   Partly Cloudy
8:00 PM 77 °F - 67 °F 64% 30.00 in 7 mi NNE 4.5 mph - -   Partly Cloudy
11:00 PM 69 °F - 64 °F 81% 30.02 in 7 mi North 4.5 mph - -   Scattered Clouds